Location: *
(53.9002°N, 27.5624°E)
Time: 17:50:22
(UTC+00:00)

Cosmos 1500 Rocket - Pass Details

Date: 12 November 2019
Orbit: 602 x 632 km, 82.5° (Epoch: 05 December)

Event Time Altitude Azimuth Distance (km) Brightness Sun altitude
Rises 15:11:59 0° 350° (N) 2,916 6.9 -8.3°
Reaches altitude 10° 15:14:16 10° 354° (N) 2,000 6.1 -8.6°
Maximum altitude 15:18:40 63° 76° (ENE) 694 3.5 -9.2°
Drops below altitude 10° 15:22:59 10° 158° (SSE) 1,966 6.1 -9.8°
Sets 15:25:12 0° 161° (SSE) 2,861 7.0 -10.1°
